Lancaster, OH

2:28 AM EST on January 17, 2018 (GMT -0500)
Fairfield County

Weather History for KLHQ - February, 2012

Change the Weather History Date:

Tuesday, February 28, 2012

  Actual Average Record
Temperature  
Mean Temperature 36 °F -  
Max Temperature 52 °F 41 °F 68 °F (1939)
Min Temperature 19 °F 22 °F -4 °F (2015)
Degree Days  
Heating Degree Days 30    
Moisture  
Dew Point 22 °F    
Average Humidity 61    
Maximum Humidity 92    
Minimum Humidity 30    
Precipitation  
Precipitation 0.00 in - - ()
Sea Level Pressure  
Sea Level Pressure 30.38 in    
Wind  
Wind Speed 2 mph (East)    
Max Wind Speed 9 mph    
Max Gust Speed -    
Visibility 9 miles    
Events Rain    
Averages and records for this station are not official NWS values.
T = Trace of Precipitation, MM = Missing Value Source: NWS Daily Summary

Daily Weather History Graph

Daily Weather History Graph

Search for Another Location

Airport or City:

Trip Planner

Search our weather history database for the weather conditions in past years. The results will help you decide how hot, cold, wet, or windy it might be!

Date:

Astronomy

Feb. 28, 2012 Rise Set
Actual Time 7:06 AM EST 6:21 PM EST
Civil Twilight 6:38 AM EST 6:48 PM EST
Nautical Twilight 6:07 AM EST 7:19 PM EST
Astronomical Twilight 5:36 AM EST 7:50 PM EST
Moon 10:13 AM EST (2/28) 12:11 AM EST (2/28)
Length of Visible Light 12h 09m
Length of Day
11h 15m
Waxing Crescent, 37% of the Moon is Illuminated
Feb 28
Waxing Crescent
Feb 29
First Quarter
Mar 8
Full
Mar 14
Last Quarter
Mar 22
New

Hourly Weather History & Observations

Time (EST) Temp. Windchill Dew Point Humidity Pressure Visibility Wind Dir Wind Speed Gust Speed Precip Events Conditions
12:53 AM 25.0 °F - 19.9 °F 81% 30.51 in 9.0 mi Calm Calm - N/A   Clear
1:53 AM 23.0 °F - 19.9 °F 88% 30.51 in 7.0 mi Calm Calm - N/A   Clear
2:53 AM 21.9 °F - 19.0 °F 89% 30.51 in 7.0 mi Calm Calm - N/A   Clear
3:53 AM 19.9 °F - 17.1 °F 89% 30.49 in 6.0 mi Calm Calm - N/A   Clear
4:53 AM 19.9 °F - 17.1 °F 89% 30.49 in 6.0 mi Calm Calm - N/A   Clear
5:53 AM 19.0 °F - 16.0 °F 88% 30.50 in 6.0 mi Calm Calm - N/A   Clear
6:53 AM 19.0 °F - 16.0 °F 88% 30.51 in 6.0 mi Calm Calm - N/A   Clear
7:53 AM 21.9 °F - 19.9 °F 92% 30.52 in 4.0 mi Calm Calm - N/A   Clear
8:53 AM 30.9 °F 22.8 °F 24.1 °F 76% 30.50 in 8.0 mi ESE 9.2 mph - N/A   Clear
9:53 AM 34.0 °F 26.6 °F 23.0 °F 64% 30.50 in 10.0 mi East 9.2 mph - N/A   Clear
10:53 AM 37.9 °F 32.1 °F 24.1 °F 57% 30.48 in 10.0 mi SE 8.1 mph - N/A   Clear
11:53 AM 41.0 °F 36.4 °F 23.0 °F 49% 30.46 in 10.0 mi ESE 6.9 mph - N/A   Clear
12:53 PM 45.0 °F 43.5 °F 23.0 °F 42% 30.42 in 10.0 mi NE 3.5 mph - N/A   Clear
1:53 PM 46.9 °F - 21.9 °F 37% 30.38 in 10.0 mi Calm Calm - N/A   Clear
2:53 PM 50.0 °F - 23.0 °F 35% 30.34 in 10.0 mi ESE 4.6 mph - N/A   Clear
3:53 PM 51.1 °F - 21.9 °F 32% 30.31 in 10.0 mi East 6.9 mph - N/A   Clear
4:53 PM 52.0 °F - 21.0 °F 30% 30.27 in 10.0 mi East 6.9 mph - N/A   Clear
5:53 PM 48.9 °F - 21.9 °F 35% 30.26 in 10.0 mi SE 5.8 mph - N/A   Clear
6:53 PM 42.1 °F 38.4 °F 23.0 °F 47% 30.25 in 10.0 mi East 5.8 mph - N/A   Partly Cloudy
7:53 PM 42.1 °F - 26.1 °F 53% 30.25 in 10.0 mi Calm Calm - N/A   Overcast
8:53 PM 43.0 °F 41.3 °F 28.0 °F 56% 30.22 in 10.0 mi NE 3.5 mph - N/A   Overcast
9:53 PM 46.0 °F 44.8 °F 23.0 °F 40% 30.20 in 10.0 mi East 3.5 mph - N/A   Overcast
10:53 PM 44.1 °F 40.8 °F 28.9 °F 55% 30.18 in 10.0 mi ENE 5.8 mph - 0.00 in Rain Light Rain
11:53 PM 43.0 °F 39.5 °F 28.9 °F 58% 30.12 in 10.0 mi ESE 5.8 mph - 0.00 in   Mostly Cloudy